Platteville, WI

6:19 PM CST on November 20, 2019 (GMT -0600)
Platteville Municipal

Weather History for KPVB - October, 2019

Change the Weather History Date:

Sunday, October 20, 2019

  Actual Average (KDBQ) Record (KDBQ)
Temperature  
Mean Temperature 50 °F -  
Max Temperature 62 °F 58 °F 82 °F (1953)
Min Temperature 39 °F 38 °F 22 °F (1952)
Degree Days  
Heating Degree Days 14    
Moisture  
Dew Point 46 °F    
Average Humidity 87    
Maximum Humidity 100    
Minimum Humidity 50    
Precipitation  
Precipitation 0.00 in - - ()
Sea Level Pressure  
Sea Level Pressure 29.87 in    
Wind  
Wind Speed 3 mph ()    
Max Wind Speed 9 mph    
Max Gust Speed -    
Visibility 5.0 miles    
Events      
Averages and records for this station are not official NWS values.
T = Trace of Precipitation, MM = Missing Value Source: Averaged Metar Reports

Daily Weather History Graph

Daily Weather History Graph

Search for Another Location

Airport or City:

Astronomy

Oct. 20, 2019 Rise Set
Actual Time 7:20 AM CDT 6:11 PM CDT
Civil Twilight 6:51 AM CDT 6:40 PM CDT
Nautical Twilight 6:19 AM CDT 7:13 PM CDT
Astronomical Twilight 5:46 AM CDT 7:45 PM CDT
Moon 11:15 PM CDT (10/20) 1:54 PM CDT (10/20)
Length of Visible Light 11h 48m
Length of Day
10h 51m
Waning Gibbous, 59% of the Moon is Illuminated
Oct 20
Waning Gibbous
Oct 21
Last Quarter
Oct 27
New
Nov 4
First Quarter
Nov 12
Full

Hourly Weather History & Observations

Time (CDT) Temp. Windchill Dew Point Humidity Pressure Visibility Wind Dir Wind Speed Gust Speed Precip Events Conditions
12:15 AM 49.1 °F - 49.1 °F 100% 29.80 in 0.5 mi Calm Calm - N/A   Overcast
12:35 AM 48.6 °F - 48.6 °F 100% 29.80 in 0.5 mi WNW 4.6 mph - N/A   Overcast
12:55 AM 48.2 °F - 48.2 °F 100% 29.81 in 0.2 mi WNW 6.9 mph - N/A   Overcast
1:15 AM 48.2 °F - 48.2 °F 100% 29.81 in 0.2 mi WNW 4.6 mph - N/A   Overcast
1:35 AM 47.3 °F - 47.3 °F 100% 29.80 in 0.2 mi Calm Calm - N/A   Overcast
1:55 AM 46.9 °F - 46.9 °F 100% 29.81 in 0.2 mi Calm Calm - N/A   Overcast
2:35 AM 45.1 °F - 45.1 °F 100% 29.82 in 0.2 mi Calm Calm - N/A   Overcast
2:55 AM 44.6 °F - 44.6 °F 100% 29.82 in 0.2 mi Calm Calm - N/A   Overcast
3:15 AM 43.7 °F - 43.7 °F 100% 29.82 in 0.2 mi Calm Calm - N/A   Overcast
3:35 AM 43.3 °F - 43.3 °F 100% 29.82 in 0.2 mi Calm Calm - N/A   Overcast
3:55 AM 43.0 °F - 43.0 °F 100% 29.82 in 0.2 mi Calm Calm - N/A   Overcast
4:15 AM 42.8 °F - 42.8 °F 100% 29.83 in 0.2 mi Calm Calm - N/A   Overcast
4:35 AM 42.8 °F - 42.8 °F 100% 29.84 in 0.2 mi Calm Calm - N/A   Overcast
4:55 AM 42.1 °F - 42.1 °F 100% 29.84 in 0.2 mi Calm Calm - N/A   Overcast
5:15 AM 41.7 °F - 41.7 °F 100% 29.84 in 0.2 mi Calm Calm - N/A   Overcast
5:35 AM 41.4 °F - 41.4 °F 100% 29.85 in 0.2 mi Calm Calm - N/A   Overcast
5:55 AM 41.0 °F - 41.0 °F 100% 29.85 in 0.2 mi Calm Calm - N/A   Overcast
6:15 AM 40.5 °F - 40.5 °F 100% 29.87 in 0.2 mi Calm Calm - N/A   Overcast
6:55 AM 41.4 °F - 41.4 °F 100% 29.87 in 0.2 mi Calm Calm - N/A   Overcast
7:15 AM 40.5 °F 38.4 °F 40.5 °F 100% 29.87 in 0.2 mi SE 3.5 mph - N/A   Overcast
7:35 AM 40.1 °F 38.0 °F 40.1 °F 100% 29.87 in 0.2 mi ESE 3.5 mph - N/A   Overcast
7:55 AM 39.7 °F 36.5 °F 39.7 °F 100% 29.88 in 0.5 mi ESE 4.6 mph - N/A   Overcast
8:15 AM 40.1 °F 36.1 °F 40.1 °F 100% 29.89 in 0.5 mi ESE 5.8 mph - N/A   Overcast
8:35 AM 41.0 °F 36.4 °F 41.0 °F 100% 29.89 in 0.2 mi ESE 6.9 mph - N/A   Overcast
8:55 AM 42.4 °F - 42.4 °F 100% 29.91 in 0.2 mi Calm Calm - N/A   Overcast
9:15 AM 43.2 °F 41.5 °F 43.2 °F 100% 29.91 in 0.2 mi ESE 3.5 mph - N/A   Overcast
9:35 AM 44.2 °F - 44.2 °F 100% 29.92 in 0.2 mi Calm Calm - N/A   Overcast
9:55 AM 45.3 °F 44.0 °F 45.3 °F 100% 29.92 in 0.2 mi SE 3.5 mph - N/A   Overcast
10:15 AM 46.0 °F 43.9 °F 46.0 °F 100% 29.93 in 0.2 mi SSE 4.6 mph - N/A   Overcast
10:35 AM 46.4 °F - 46.4 °F 100% 29.93 in 0.2 mi Calm Calm - N/A   Overcast
10:55 AM 47.1 °F - 47.1 °F 100% 29.93 in 0.2 mi SSE 3.5 mph - N/A   Overcast
11:15 AM 48.0 °F - 48.0 °F 100% 29.94 in 0.2 mi SE 3.5 mph - N/A   Overcast
11:55 AM 48.9 °F - 48.9 °F 100% 29.94 in 0.8 mi SE 4.6 mph - N/A   Overcast
12:15 PM 49.8 °F - 49.8 °F 100% 29.94 in 2.5 mi SSE 3.5 mph - N/A   Overcast
12:55 PM 51.8 °F - 51.8 °F 100% 29.92 in 10.0 mi SE 4.6 mph - N/A   Mostly Cloudy
1:15 PM 53.4 °F - 53.4 °F 100% 29.92 in 10.0 mi SE 4.6 mph - N/A   Scattered Clouds
1:35 PM 54.7 °F - 54.7 °F 100% 29.91 in 10.0 mi SE 5.8 mph - N/A   Scattered Clouds
1:55 PM 56.7 °F - 56.5 °F 99% 29.90 in 10.0 mi SE 6.9 mph - N/A   Clear
2:15 PM 57.0 °F - 55.4 °F 94% 29.90 in 10.0 mi SSE 3.5 mph - N/A   Clear
2:35 PM 60.3 °F - 54.1 °F 80% 29.90 in 10.0 mi SE 4.6 mph - N/A   Clear
2:55 PM 61.5 °F - 54.0 °F 76% 29.90 in 10.0 mi SSE 4.6 mph - N/A   Clear
3:15 PM 61.7 °F - 51.4 °F 69% 29.89 in 10.0 mi ESE 3.5 mph - N/A   Clear
3:35 PM 62.4 °F - 50.4 °F 65% 29.89 in 10.0 mi Calm Calm - N/A   Clear
3:55 PM 61.9 °F - 48.6 °F 62% 29.88 in 10.0 mi SE 3.5 mph - N/A   Clear
4:15 PM 61.9 °F - 47.8 °F 60% 29.88 in 10.0 mi SE 5.8 mph - N/A   Clear
4:55 PM 62.6 °F - 43.9 °F 50% 29.89 in 10.0 mi SSE 5.8 mph - N/A   Clear
5:15 PM 60.6 °F - 45.7 °F 58% 29.88 in 10.0 mi SSE 3.5 mph - N/A   Clear
5:35 PM 60.3 °F - 45.5 °F 58% 29.88 in 10.0 mi Calm Calm - N/A   Clear
5:55 PM 58.6 °F - 45.5 °F 62% 29.87 in 10.0 mi NE 3.5 mph - N/A   Clear
6:15 PM 57.7 °F - 47.7 °F 69% 29.87 in 10.0 mi NE 4.6 mph - N/A   Clear
6:35 PM 57.2 °F - 47.3 °F 69% 29.87 in 10.0 mi ENE 5.8 mph - N/A   Clear
6:55 PM 57.4 °F - 47.5 °F 70% 29.85 in 10.0 mi ENE 9.2 mph - N/A   Clear
7:15 PM 56.5 °F - 47.7 °F 72% 29.86 in 10.0 mi ENE 6.9 mph - N/A   Clear
7:35 PM 55.4 °F - 48.0 °F 76% 29.87 in 10.0 mi East 5.8 mph - N/A   Clear
7:55 PM 54.5 °F - 48.2 °F 79% 29.87 in 10.0 mi ENE 6.9 mph - N/A   Clear
8:15 PM 53.8 °F - 48.2 °F 81% 29.86 in 10.0 mi East 6.9 mph - N/A   Clear
8:35 PM 54.0 °F - 46.2 °F 75% 29.86 in 10.0 mi East 5.8 mph - N/A   Clear
8:55 PM 53.6 °F - 45.3 °F 74% 29.86 in 10.0 mi East 5.8 mph - N/A   Clear
9:15 PM 54.0 °F - 44.1 °F 69% 29.86 in 10.0 mi ESE 8.1 mph - N/A   Clear
9:35 PM 53.8 °F - 43.5 °F 68% 29.85 in 10.0 mi ESE 6.9 mph - N/A   Clear
9:55 PM 53.4 °F - 42.8 °F 67% 29.85 in 10.0 mi ESE 8.1 mph - N/A   Clear
10:35 PM 52.3 °F - 42.8 °F 70% 29.84 in 10.0 mi ESE 8.1 mph - N/A   Clear
10:55 PM 52.2 °F - 42.8 °F 70% 29.83 in 10.0 mi East 8.1 mph - N/A   Clear
11:15 PM 52.2 °F - 42.4 °F 69% 29.82 in 10.0 mi East 8.1 mph - N/A   Clear
11:35 PM 52.0 °F - 42.3 °F 69% 29.82 in 10.0 mi East 9.2 mph - N/A   Clear
11:55 PM 51.8 °F - 42.1 °F 69% 29.81 in 10.0 mi East 9.2 mph - N/A   Clear